TimeCDT,TemperatureF,Dew PointF,Humidity,Sea Level PressureIn,VisibilityMPH,Wind Direction,Wind SpeedMPH,Gust SpeedMPH,PrecipitationIn,Events,Conditions,WindDirDegrees,DateUTC
12:53 AM,39.9,39.9,100,29.73,8.0,North,-9999.0,-,0.00,Rain,Light Rain,0,2013-04-18 05:53:00
1:01 AM,39.2,37.4,93,29.73,3.0,North,-9999.0,-,0.03,Rain,Heavy Rain,0,2013-04-18 06:01:00
1:13 AM,39.2,37.4,93,29.75,3.0,North,-9999.0,-,0.07,Rain,Rain,0,2013-04-18 06:13:00
1:53 AM,39.9,39.0,97,29.73,5.0,North,-9999.0,-,0.13,Rain,Light Rain,0,2013-04-18 06:53:00
2:21 AM,39.2,37.4,93,29.68,10.0,North,-9999.0,-,0.00,Rain,Light Rain,0,2013-04-18 07:21:00
2:43 AM,39.2,37.4,93,29.71,10.0,North,-9999.0,-,0.01,Thunderstorm,Overcast,0,2013-04-18 07:43:00
2:53 AM,39.0,37.9,96,29.70,10.0,North,-9999.0,-,0.01,,Overcast,0,2013-04-18 07:53:00
3:30 AM,37.4,37.4,100,29.68,10.0,North,-9999.0,-,0.00,Thunderstorm,Overcast,0,2013-04-18 08:30:00
3:53 AM,37.9,36.0,93,29.68,10.0,North,-9999.0,-,0.01,Rain-Thunderstorm,Light Rain,0,2013-04-18 08:53:00
4:05 AM,37.4,35.6,93,29.66,10.0,North,-9999.0,-,0.00,,Overcast,0,2013-04-18 09:05:00
4:53 AM,37.9,35.1,89,29.67,10.0,North,12.7,21.9,0.00,,Overcast,360,2013-04-18 09:53:00
5:32 AM,37.4,35.6,93,29.65,4.0,NNW,12.7,20.7,0.01,Snow-Thunderstorm,Light Snow,340,2013-04-18 10:32:00
5:41 AM,37.4,35.6,93,29.65,5.0,NNW,11.5,23.0,0.02,Snow,Light Snow,340,2013-04-18 10:41:00
5:53 AM,37.0,36.0,96,29.67,9.0,NNW,13.8,24.2,0.02,Rain,Light Rain,330,2013-04-18 10:53:00
6:00 AM,37.4,35.6,93,29.65,10.0,NNW,11.5,23.0,0.00,,Overcast,340,2013-04-18 11:00:00
6:25 AM,37.4,35.6,93,29.67,8.0,NW,13.8,21.9,0.00,,Overcast,320,2013-04-18 11:25:00
6:53 AM,37.0,36.0,96,29.69,3.0,NW,13.8,23.0,0.00,,Overcast,310,2013-04-18 11:53:00
7:40 AM,35.6,35.6,100,29.70,2.5,NW,16.1,25.3,0.00,,Overcast,320,2013-04-18 12:40:00
7:53 AM,36.0,35.1,97,29.72,2.5,NW,18.4,24.2,0.00,,Overcast,320,2013-04-18 12:53:00
8:23 AM,35.6,35.6,100,29.70,3.0,NW,18.4,29.9,0.00,,Overcast,320,2013-04-18 13:23:00
8:53 AM,36.0,35.1,97,29.69,4.0,NW,20.7,31.1,0.01,Rain,Light Rain,320,2013-04-18 13:53:00
9:30 AM,35.6,35.6,100,29.71,2.5,NW,18.4,26.5,0.00,Rain,Light Rain,310,2013-04-18 14:30:00
9:53 AM,35.1,35.1,100,29.73,2.5,NW,19.6,29.9,0.01,Snow,Light Snow,310,2013-04-18 14:53:00
10:05 AM,35.6,33.8,93,29.71,4.0,NW,24.2,33.4,0.00,Rain,Light Rain,320,2013-04-18 15:05:00
10:53 AM,35.1,34.0,96,29.74,7.0,NW,24.2,35.7,0.00,Snow,Light Snow,320,2013-04-18 15:53:00
11:31 AM,35.6,32.0,87,29.75,10.0,NW,21.9,34.5,0.00,,Overcast,320,2013-04-18 16:31:00
11:41 AM,35.6,30.2,81,29.75,9.0,NW,20.7,29.9,0.00,,Overcast,310,2013-04-18 16:41:00
11:53 AM,36.0,32.0,86,29.76,10.0,NW,19.6,27.6,0.00,,Overcast,320,2013-04-18 16:53:00
12:50 PM,35.6,30.2,81,29.75,9.0,NW,19.6,32.2,0.00,,Overcast,320,2013-04-18 17:50:00
12:53 PM,36.0,30.9,82,29.77,10.0,NW,19.6,29.9,0.00,,Overcast,310,2013-04-18 17:53:00
1:53 PM,37.0,30.9,79,29.80,10.0,NW,16.1,31.1,N/A,,Overcast,310,2013-04-18 18:53:00
2:53 PM,37.0,30.0,76,29.83,10.0,NW,23.0,29.9,N/A,,Overcast,310,2013-04-18 19:53:00
3:53 PM,37.9,30.0,73,29.83,10.0,NW,19.6,29.9,N/A,,Overcast,320,2013-04-18 20:53:00
4:53 PM,39.0,30.0,70,29.84,10.0,NW,18.4,32.2,N/A,,Overcast,320,2013-04-18 21:53:00
5:19 PM,39.2,30.2,70,29.83,10.0,WNW,17.3,27.6,N/A,,Overcast,300,2013-04-18 22:19:00
5:53 PM,37.9,28.9,70,29.87,10.0,NW,12.7,26.5,N/A,,Overcast,310,2013-04-18 22:53:00
6:03 PM,37.4,28.4,70,29.86,10.0,NW,17.3,24.2,N/A,,Overcast,310,2013-04-18 23:03:00
6:15 PM,37.4,28.4,70,29.86,10.0,WNW,25.3,32.2,N/A,,Overcast,290,2013-04-18 23:15:00
6:53 PM,37.0,28.0,70,29.89,10.0,NW,16.1,27.6,N/A,,Overcast,310,2013-04-18 23:53:00
7:53 PM,37.0,28.0,70,29.91,10.0,NW,15.0,24.2,N/A,,Overcast,310,2013-04-19 00:53:00
8:53 PM,36.0,26.1,67,29.93,10.0,NW,20.7,31.1,N/A,,Overcast,320,2013-04-19 01:53:00
9:53 PM,35.1,25.0,67,29.95,10.0,NW,18.4,29.9,N/A,,Overcast,320,2013-04-19 02:53:00
10:53 PM,34.0,25.0,70,29.95,10.0,NW,19.6,28.8,N/A,,Overcast,310,2013-04-19 03:53:00
11:53 PM,34.0,26.1,73,29.94,10.0,NW,15.0,21.9,N/A,,Overcast,310,2013-04-19 04:53:00